Kinston, NC

3:30 AM EDT on March 26, 2017 (GMT -0400)
Kinston Regional Jetport / Stallings Field

Weather History for KISO - April, 2013

Change the Weather History Date:

Thursday, April 11, 2013

  Actual Average Record
Temperature  
Mean Temperature 74 °F -  
Max Temperature 86 °F 71 °F 87 °F (1977)
Min Temperature 61 °F 50 °F 32 °F (1973)
Cooling Degree Days 8    
Growing Degree Days 24 (Base 50)    
Moisture  
Dew Point 61 °F    
Average Humidity 77    
Maximum Humidity 96    
Minimum Humidity 37    
Precipitation  
Precipitation 0.00 in - - ()
Sea Level Pressure  
Sea Level Pressure 29.96 in    
Wind  
Wind Speed 11 mph (SSW)    
Max Wind Speed 16 mph    
Max Gust Speed 24 mph    
Visibility 10 miles    
Events      
Averages and records for this station are not official NWS values.
T = Trace of Precipitation, MM = Missing Value Source: NWS Daily Summary

Daily Weather History Graph

Daily Weather History Graph

Search for Another Location

Airport or City:

Trip Planner

Search our weather history database for the weather conditions in past years. The results will help you decide how hot, cold, wet, or windy it might be!

Date:

Astronomy

Apr. 11, 2013 Rise Set
Actual Time 6:43 AM EDT 7:40 PM EDT
Civil Twilight 6:17 AM EDT 8:06 PM EDT
Nautical Twilight 5:46 AM EDT 8:37 PM EDT
Astronomical Twilight 5:14 AM EDT 9:09 PM EDT
Moon 7:16 AM EDT (4/11) 9:08 PM EDT (4/11)
Length of Visible Light 13h 49m
Length of Day
12h 57m
New Moon, 2% of the Moon is Illuminated
Apr 11
New Moon
Apr 18
First Quarter
Apr 25
Full
May 2
Last Quarter
May 9
New

Hourly Weather History & Observations

Time (EDT) Temp. Heat Index Dew Point Humidity Pressure Visibility Wind Dir Wind Speed Gust Speed Precip Events Conditions
12:15 AM 66.6 °F - 57.6 °F 73% 30.01 in 10.0 mi SSW 10.4 mph - N/A   Clear
12:35 AM 65.8 °F - 58.1 °F 76% 30.01 in 10.0 mi SSW 11.5 mph - N/A   Clear
12:55 AM 65.7 °F - 58.3 °F 77% 30.01 in 10.0 mi SSW 10.4 mph - N/A   Clear
1:15 AM 65.3 °F - 58.8 °F 80% 30.01 in 10.0 mi SSW 9.2 mph - N/A   Clear
1:35 AM 64.9 °F - 59.0 °F 81% 30.01 in 10.0 mi SSW 8.1 mph - N/A   Clear
1:55 AM 64.4 °F - 59.4 °F 84% 30.01 in 10.0 mi SSW 6.9 mph - N/A   Clear
2:15 AM 64.4 °F - 59.7 °F 85% 30.00 in 10.0 mi SSW 9.2 mph - N/A   Clear
2:35 AM 64.0 °F - 59.7 °F 86% 30.00 in 10.0 mi SSW 10.4 mph - N/A   Clear
2:55 AM 63.9 °F - 60.1 °F 87% 30.00 in 10.0 mi SW 10.4 mph 16.1 mph N/A   Clear
3:15 AM 63.9 °F - 60.4 °F 89% 29.99 in 10.0 mi SW 9.2 mph - N/A   Clear
3:35 AM 63.9 °F - 60.8 °F 90% 29.99 in 10.0 mi SW 9.2 mph - N/A   Clear
3:55 AM 63.9 °F - 61.0 °F 90% 29.99 in 10.0 mi SSW 10.4 mph - N/A   Clear
4:15 AM 63.5 °F - 60.8 °F 91% 29.99 in 10.0 mi SW 10.4 mph - N/A   Clear
4:35 AM 63.5 °F - 61.0 °F 91% 29.99 in 10.0 mi SSW 10.4 mph - N/A   Clear
4:55 AM 63.0 °F - 60.8 °F 93% 29.99 in 10.0 mi SW 10.4 mph - N/A   Clear
5:15 AM 62.6 °F - 60.8 °F 94% 30.00 in 10.0 mi SW 9.2 mph - N/A   Clear
5:35 AM 62.1 °F - 60.6 °F 95% 30.00 in 10.0 mi SSW 8.1 mph - N/A   Clear
5:55 AM 61.7 °F - 60.3 °F 95% 30.00 in 10.0 mi SSW 6.9 mph - N/A   Clear
6:15 AM 61.3 °F - 60.1 °F 96% 30.00 in 10.0 mi SW 5.8 mph - N/A   Clear
6:35 AM 61.7 °F - 60.3 °F 95% 30.01 in 10.0 mi SW 5.8 mph - N/A   Clear
6:55 AM 61.7 °F - 60.6 °F 96% 30.01 in 10.0 mi SSW 6.9 mph - N/A   Clear
6:56 AM 62.6 °F - 60.8 °F 94% 30.01 in 10.0 mi SSW 6.9 mph - N/A   Clear
7:56 AM 64.4 °F - 62.6 °F 94% 30.03 in 10.0 mi SW 9.2 mph - N/A   Clear
8:56 AM 69.8 °F - 62.6 °F 78% 30.04 in 10.0 mi SW 12.7 mph 19.6 mph N/A   Clear
9:56 AM 73.4 °F - 62.6 °F 69% 30.03 in 10.0 mi SW 13.8 mph 18.4 mph N/A   Scattered Clouds
10:56 AM 77.0 °F - 60.8 °F 57% 30.02 in 10.0 mi SSW 15.0 mph 21.9 mph N/A   Scattered Clouds
11:56 AM 78.8 °F - 57.2 °F 47% 30.00 in 10.0 mi SSW 16.1 mph 21.9 mph N/A   Scattered Clouds
1:56 PM 82.4 °F 82.0 °F 57.2 °F 42% 29.94 in 10.0 mi SW 16.1 mph 21.9 mph N/A   Scattered Clouds
2:56 PM 82.4 °F 82.0 °F 57.2 °F 42% 29.91 in 10.0 mi SSW 16.1 mph 23.0 mph N/A   Scattered Clouds
3:56 PM 86.0 °F 84.9 °F 57.2 °F 37% 29.88 in 10.0 mi SSW 15.0 mph 23.0 mph N/A   Scattered Clouds
4:56 PM 84.2 °F 83.5 °F 57.2 °F 40% 29.86 in 10.0 mi SSW 10.4 mph 20.7 mph N/A   Scattered Clouds
5:56 PM 82.4 °F 82.9 °F 60.8 °F 48% 29.86 in 10.0 mi SSW 9.2 mph - N/A   Scattered Clouds
6:56 PM 78.8 °F - 64.4 °F 61% 29.86 in 10.0 mi South 13.8 mph - N/A   Clear
7:56 PM 75.2 °F - 64.4 °F 69% 29.86 in 10.0 mi South 10.4 mph - N/A   Clear
8:56 PM 73.4 °F - 64.4 °F 73% 29.87 in 10.0 mi South 13.8 mph 21.9 mph N/A   Clear
9:15 PM 73.8 °F - 64.4 °F 72% 29.89 in 10.0 mi South 16.1 mph 21.9 mph N/A   Clear
9:35 PM 73.2 °F - 64.9 °F 75% 29.89 in 10.0 mi South 12.7 mph 20.7 mph N/A   Scattered Clouds
9:55 PM 72.5 °F - 64.9 °F 77% 29.89 in 10.0 mi SSW 15.0 mph 21.9 mph N/A   Scattered Clouds
9:56 PM 73.4 °F - 64.4 °F 73% 29.89 in 10.0 mi SSW 16.1 mph 21.9 mph N/A   Scattered Clouds
10:15 PM 72.5 °F - 64.9 °F 77% 29.89 in 10.0 mi South 12.7 mph 18.4 mph N/A   Scattered Clouds
10:35 PM 72.5 °F - 65.3 °F 78% 29.89 in 10.0 mi South 12.7 mph - N/A   Scattered Clouds
10:55 PM 72.1 °F - 65.3 °F 79% 29.89 in 10.0 mi South 15.0 mph 24.2 mph N/A   Mostly Cloudy
11:15 PM 71.6 °F - 65.3 °F 80% 29.89 in 10.0 mi South 12.7 mph 18.4 mph N/A   Scattered Clouds
11:35 PM 71.1 °F - 64.9 °F 81% 29.88 in 10.0 mi South 8.1 mph - N/A   Clear
11:55 PM 70.9 °F - 65.3 °F 82% 29.88 in 10.0 mi South 11.5 mph - N/A   Mostly Cloudy